Regional Weather Roundup
Issued by NWS

Home | Current Version | Previous Version | Graphics & Text | Print | Product List | Glossary On
Versions: 1 2 3 4 5 6 7 8 9 10 11 12 13 14 15 16 17 18 19 20 21 22 23 24 25 26 27 28 29 30 31 32 33 34 35 36 37 38 39 40 41 42 43 44 45 46 47 48 49 50
000
ASUS43 KFSD 281510
RWRSD

WEATHER ROUNDUP FOR SOUTH DAKOTA
NATIONAL WEATHER SERVICE SIOUX FALLS SD
900 AM CST FRI NOV 28 2014

NOTE: "FAIR" INDICATES FEW OR NO CLOUDS BELOW 12,000 FEET WITH NO
SIGNIFICANT WEATHER AND/OR OBSTRUCTIONS TO VISIBILITY.


SDZ001>005-009-010-012>017-281600-
NORTHWEST AND NORTH CENTRAL SOUTH DAKOTA

CITY           SKY/WX    TMP DP  RH WIND       PRES   REMARKS
BUFFALO          N/A     42  30  62 CALM      29.58F
FAITH            N/A     35  26  69 S12       29.67S WCI  27
MOBRIDGE       CLOUDY    19  14  81 E6        29.72S WCI  11
$$

SDZ012>016-024>037-041>051-057-063-072>074-281600-
SOUTHWEST AND SOUTH CENTRAL SOUTH DAKOTA

CITY           SKY/WX    TMP DP  RH WIND       PRES   REMARKS
RAPID CTY ARPT MOCLDY    37  28  70 S7        29.71R
PIERRE         CLEAR     19  14  81 E5        29.72F WCI  12
CUSTER         MOCLDY    44  23  43 W8        29.78R
ELLSWORTH AFB  MOCLDY    35  28  75 W6        29.70S WCI  30
PHILIP         CLEAR     27  23  85 CALM      29.70S
PINE RIDGE     PTCLDY    44  27  51 W7        29.76R
SPEARFISH      FAIR      48  27  43 W5        29.72S
WINNER         FAIR      43  29  57 S7        29.69F
$$

SDZ004>011-016>023-039-040-281600-
NORTHEAST SOUTH DAKOTA

CITY           SKY/WX    TMP DP  RH WIND       PRES   REMARKS
ABERDEEN       CLOUDY    17  12  80 NE8       29.82F WCI   7
WATERTOWN      CLOUDY    15  10  80 SE6       29.79F WCI   6
SISSETON         N/A      9   5  84 S12       29.88F WCI  -6
$$

SDZ017-020-022-023-036>040-048>070-281600-
SOUTHEAST SOUTH DAKOTA

CITY           SKY/WX    TMP DP  RH WIND       PRES   REMARKS
SIOUX FALLS    CLOUDY    22  18  85 E6        29.81S WCI  14
HURON          CLOUDY    23  18  81 SE6       29.79F WCI  16
CHAMBERLAIN    PTCLDY    24  20  83 E7        29.72F WCI  16
MITCHELL       MOSUNNY   24  19  81 E5        29.79F WCI  18
YANKTON        SUNNY     25  19  80 E3        29.80S
$$

ABBREVIATIONS USED IN REMARKS
   TC - TEMPERATURE IN CELSIUS
  WCI - WIND CHILL INDEX
   HX - HEAT INDEX
  VSB - VISIBILITY



USA.gov is the U.S. government's official web portal to all federal, state and local government web resources and services.